This is the latest recevied weather packets stored in our database for station/object VA6GSB-13. If no packets are shown the sender has not sent any weather packets the latest 10 day(s).
| Time | Temp. | Humidity | Pressure | Rain* | Wind** | Luminosity | Snow |
|---|---|---|---|---|---|---|---|
| 1787423363 | 22.22° C | 65% | 1015 hPa | 0 mm | - | 190 W/m² | - |
| 1787423063 | 21.67° C | 65% | 1015.1 hPa | 0 mm | - | 198 W/m² | - |
| 1787422763 | 21.67° C | 67% | 1015.1 hPa | 0 mm | - | 225 W/m² | - |
| 1787422466 | 21.67° C | 67% | 1015.2 hPa | 0 mm | - | 230 W/m² | - |
| 1787422163 | 21.67° C | 65% | 1015.2 hPa | 0 mm | - | 235 W/m² | - |
| 1787421863 | 21.67° C | 67% | 1015.3 hPa | 0 mm | - | 254 W/m² | - |
| 1787421563 | 21.11° C | 67% | 1015.4 hPa | 0 mm | - | 281 W/m² | - |
| 1787421339 | 21.11° C | 68% | 1016 hPa | 0 mm | - | 312 W/m² | - |
| 1787421041 | 21.11° C | 67% | 1016 hPa | 0 mm | - | 325 W/m² | - |
| 1787420739 | 20.56° C | 69% | 1016 hPa | 0 mm | - | 312 W/m² | - |
| 1787420663 | 20.56° C | 69% | 1015.6 hPa | 0 mm | - | 314 W/m² | - |
| 1787420364 | 20.56° C | 68% | 1015.7 hPa | 0 mm | - | 335 W/m² | - |
| 1787420140 | 20.56° C | 69% | 1016 hPa | 0 mm | - | 308 W/m² | - |
| 1787420063 | 20.56° C | 69% | 1015.7 hPa | 0 mm | - | 300 W/m² | - |
| 1787419763 | 20.56° C | 68% | 1015.7 hPa | 0 mm | - | 314 W/m² | - |
| 1787419464 | 20.56° C | 68% | 1015.6 hPa | 0 mm | - | 331 W/m² | - |
| 1787419163 | 20° C | 68% | 1015.6 hPa | 0 mm | - | 363 W/m² | - |
| 1787418863 | 20° C | 69% | 1015.6 hPa | 0 mm | - | 380 W/m² | - |
| 1787418661 | 20° C | 69% | 1016 hPa | 0 mm | - | 372 W/m² | - |
| 1787418340 | 19.44° C | 70% | 1016 hPa | 0 mm | - | 371 W/m² | - |
| 1787418040 | 19.44° C | 69% | 1016 hPa | 0 mm | - | 315 W/m² | - |
| 1787417963 | 19.44° C | 69% | 1015.7 hPa | 0 mm | - | 323 W/m² | - |
| 1787417739 | 19.44° C | 69% | 1016 hPa | 0 mm | - | 341 W/m² | - |
| 1787417664 | 19.44° C | 69% | 1015.8 hPa | 0 mm | - | 333 W/m² | - |
| 1787417439 | 19.44° C | 70% | 1016 hPa | 0 mm | - | 388 W/m² | - |
* Rain latest hour (hover to see other rain measurements)
** Current wind speed in m/s (hover to see current wind gust speed)